contact:dominique.lefevre@mio.osupytheas.fr, maurice.libes@osupytheas.fr, didier.mallarino@osupytheas.fr
Project:EMSO http://www.emso-fr.org/EMSO-France
Depth: 2436.0 m
Title:EMSO Ligure Ouest : Data MII capteur AQUADOPP
Date,Latitude,Longitude,X_East,Y_North,Z_Up,Amplitude_X,Amplitude_Y,Amplitude_Z,Batterie,SoundSpeed,Heading,Pitch,Roll,Pressure,TIS,Speed,Direction
, degrees North, degrees East, m.s-1, m.s-1,m.s-1, 1, 1, 1, Volt, m.s-1, degree, degree, degree, dbar, degree_C, m.s-1, degree
2020-11-21T00:04:03,42.805,6.029,-0.006,-0.02,0.02,102.0,106.0,100.0,13.3,1505.3,326.4,-0.7,1.8,2470.453,13.31,0.02,196.7
2020-11-21T00:07:03,42.805,6.029,0.017,-0.037,0.014,101.0,104.0,101.0,13.3,1505.3,324.8,-0.7,1.8,2470.436,13.32,0.04,155.3
2020-11-21T00:10:03,42.805,6.029,-0.006,0.0,0.013,102.0,103.0,99.0,13.4,1505.3,326.2,-0.7,1.8,2470.435,13.32,0.006,270.0
2020-11-21T00:13:03,42.805,6.029,-0.011,-0.016,0.002,103.0,104.0,100.0,13.4,1505.3,324.3,-0.7,1.8,2470.439,13.32,0.019,214.5
2020-11-21T00:16:03,42.805,6.029,0.012,-0.019,0.013,101.0,104.0,100.0,13.4,1505.3,328.2,-0.7,1.8,2470.455,13.33,0.022,147.7
2020-11-21T00:19:03,42.805,6.029,0.022,-0.003,0.035,102.0,104.0,99.0,13.4,1505.3,326.7,-0.7,1.8,2470.445,13.33,0.022,97.8
2020-11-21T00:22:03,42.805,6.029,-0.005,-0.016,0.003,101.0,105.0,99.0,13.4,1505.3,324.2,-0.7,1.8,2470.39,13.33,0.016,197.4
2020-11-21T00:25:03,42.805,6.029,0.015,-0.022,0.008,100.0,104.0,100.0,13.4,1505.3,325.6,-0.7,1.8,2470.4,13.33,0.026,145.7
2020-11-21T00:28:03,42.805,6.029,0.007,-0.005,0.034,103.0,103.0,101.0,13.4,1505.3,324.6,-0.7,1.9,2470.426,13.33,0.008,125.5
2020-11-21T00:31:03,42.805,6.029,0.032,-0.014,0.028,102.0,104.0,99.0,13.4,1505.3,327.9,-0.7,1.8,2470.416,13.33,0.034,113.6
2020-11-21T00:34:03,42.805,6.029,0.005,-0.023,0.004,101.0,103.0,101.0,13.4,1505.3,324.7,-0.7,1.8,2470.404,13.33,0.023,167.7
2020-11-21T00:37:03,42.805,6.029,0.022,-0.018,0.029,100.0,105.0,99.0,13.4,1505.3,323.5,-0.7,1.8,2470.428,13.33,0.028,129.3
2020-11-21T00:40:03,42.805,6.029,-0.003,-0.019,0.006,101.0,105.0,100.0,13.3,1505.3,324.6,-0.7,1.8,2470.409,13.33,0.019,189.0
2020-11-21T00:43:03,42.805,6.029,0.02,-0.038,-0.013,100.0,105.0,101.0,13.4,1505.3,324.3,-0.7,1.8,2470.433,13.33,0.042,152.2
2020-11-21T00:46:03,42.805,6.029,-0.008,-0.008,-0.023,101.0,105.0,99.0,13.4,1505.3,327.3,-0.7,1.8,2470.438,13.33,0.011,225.0
2020-11-21T00:49:03,42.805,6.029,-0.033,-0.032,-0.051,101.0,104.0,100.0,13.4,1505.3,325.9,-0.7,1.8,2470.385,13.33,0.045,225.9
2020-11-21T00:52:03,42.805,6.029,-0.007,-0.021,-0.02,100.0,104.0,99.0,13.3,1505.3,326.6,-0.7,1.8,2470.385,13.33,0.022,198.4
2020-11-21T00:55:03,42.805,6.029,-0.032,-0.042,-0.039,101.0,105.0,100.0,13.4,1505.3,326.3,-0.7,1.8,2470.37,13.33,0.052,217.3
2020-11-21T00:58:03,42.805,6.029,-0.006,-0.038,0.013,102.0,103.0,98.0,13.3,1505.3,324.9,-0.7,1.9,2470.395,13.33,0.038,189.0
2020-11-21T01:04:03,42.805,6.029,-0.023,-0.027,-0.005,103.0,106.0,100.0,13.4,1505.3,322.7,-0.7,1.8,2470.459,13.31,0.035,220.4
2020-11-21T01:07:03,42.805,6.029,-0.055,-0.023,-0.04,102.0,104.0,100.0,13.3,1505.3,328.4,-0.7,1.8,2470.456,13.31,0.059,247.3
2020-11-21T01:10:03,42.805,6.029,-0.014,-0.02,-0.001,101.0,104.0,100.0,13.3,1505.3,326.3,-0.7,1.9,2470.443,13.32,0.024,215.0
2020-11-21T01:13:03,42.805,6.029,0.013,-0.009,0.042,100.0,104.0,99.0,13.3,1505.3,327.1,-0.7,1.9,2470.447,13.32,0.015,124.7
2020-11-21T01:16:03,42.805,6.029,-0.002,-0.051,-0.025,100.0,101.0,100.0,13.4,1505.3,327.1,-0.7,1.8,2470.428,13.32,0.051,182.2
2020-11-21T01:19:03,42.805,6.029,-0.02,-0.028,0.0,102.0,104.0,100.0,13.3,1505.3,324.7,-0.7,1.8,2470.394,13.32,0.034,215.5
2020-11-21T01:22:03,42.805,6.029,0.015,-0.011,0.029,100.0,103.0,99.0,13.4,1505.3,324.2,-0.7,1.8,2470.405,13.32,0.018,126.3
2020-11-21T01:25:03,42.805,6.029,0.025,-0.041,0.003,101.0,103.0,99.0,13.4,1505.3,324.7,-0.7,1.8,2470.406,13.33,0.048,148.6
2020-11-21T01:28:03,42.805,6.029,-0.037,-0.031,-0.044,101.0,103.0,99.0,13.4,1505.3,325.7,-0.7,1.8,2470.397,13.33,0.048,230.0
2020-11-21T01:31:03,42.805,6.029,0.012,-0.032,0.014,100.0,103.0,99.0,13.4,1505.3,323.4,-0.7,1.8,2470.377,13.33,0.034,159.4
2020-11-21T01:34:03,42.805,6.029,-0.001,-0.037,-0.021,102.0,102.0,100.0,13.3,1505.3,326.5,-0.7,1.8,2470.43,13.33,0.037,181.5
2020-11-21T01:37:03,42.805,6.029,-0.036,-0.027,-0.048,99.0,103.0,99.0,13.4,1505.3,327.2,-0.7,1.8,2470.369,13.33,0.045,233.1
2020-11-21T01:40:03,42.805,6.029,-0.01,-0.043,-0.014,100.0,103.0,100.0,13.4,1505.3,325.9,-0.7,1.8,2470.401,13.33,0.044,193.1
2020-11-21T01:43:03,42.805,6.029,-0.002,-0.016,0.018,102.0,102.0,100.0,13.3,1505.3,325.9,-0.7,1.8,2470.406,13.33,0.016,187.1
2020-11-21T01:46:03,42.805,6.029,-0.033,-0.018,-0.022,100.0,105.0,99.0,13.3,1505.3,326.1,-0.7,1.8,2470.441,13.33,0.037,241.4
2020-11-21T01:49:03,42.805,6.029,-0.004,-0.027,-0.006,100.0,105.0,98.0,13.4,1505.3,325.0,-0.7,1.8,2470.399,13.33,0.027,188.4
2020-11-21T01:52:03,42.805,6.029,-0.019,-0.018,-0.012,101.0,103.0,98.0,13.4,1505.3,327.1,-0.7,1.8,2470.414,13.33,0.026,226.5
2020-11-21T01:55:03,42.805,6.029,0.04,-0.028,0.008,102.0,103.0,99.0,13.3,1505.3,324.6,-0.7,1.8,2470.456,13.33,0.048,125.0
2020-11-21T01:58:03,42.805,6.029,0.034,-0.023,0.041,99.0,102.0,99.0,13.4,1505.3,325.4,-0.7,1.8,2470.39,13.33,0.041,124.1
2020-11-21T02:04:03,42.805,6.029,-0.014,-0.012,0.005,100.0,103.0,99.0,13.4,1505.3,327.1,-0.7,1.8,2470.432,13.31,0.018,229.4
2020-11-21T02:07:03,42.805,6.029,-0.011,-0.014,-0.005,99.0,104.0,98.0,13.4,1505.3,324.7,-0.7,1.9,2470.444,13.31,0.017,218.2
2020-11-21T02:10:03,42.805,6.029,-0.03,-0.01,-0.012,100.0,103.0,98.0,13.3,1505.3,327.6,-0.7,1.8,2470.431,13.32,0.031,251.6
2020-11-21T02:13:03,42.805,6.029,0.018,-0.027,0.027,101.0,103.0,99.0,13.4,1505.3,323.9,-0.7,1.8,2470.424,13.32,0.032,146.3
2020-11-21T02:19:03,42.805,6.029,0.031,-0.019,0.03,100.0,102.0,99.0,13.3,1505.3,323.4,-0.7,1.8,2470.422,13.31,0.036,121.5
2020-11-21T02:22:03,42.805,6.029,0.05,-0.004,0.033,101.0,102.0,99.0,13.3,1505.3,326.9,-0.7,1.9,2470.434,13.31,0.05,94.6
2020-11-21T02:25:03,42.805,6.029,0.069,-0.008,0.092,100.0,102.0,100.0,13.4,1505.3,325.6,-0.7,1.8,2470.416,13.32,0.069,96.6
2020-11-21T02:28:03,42.805,6.029,0.055,-0.019,0.037,99.0,103.0,99.0,13.4,1505.3,323.5,-0.7,1.8,2470.467,13.32,0.058,109.1
2020-11-21T02:31:03,42.805,6.029,0.027,-0.008,0.053,100.0,104.0,98.0,13.4,1505.3,327.5,-0.7,1.9,2470.443,13.32,0.028,106.5
2020-11-21T02:34:03,42.805,6.029,0.035,-0.005,0.018,100.0,104.0,99.0,13.4,1505.3,326.0,-0.7,1.8,2470.414,13.33,0.035,98.1
2020-11-21T02:37:03,42.805,6.029,-0.001,-0.023,-0.021,100.0,103.0,99.0,13.3,1505.3,326.8,-0.7,1.8,2470.403,13.33,0.023,182.5
2020-11-21T02:40:03,42.805,6.029,0.018,-0.027,0.007,101.0,103.0,99.0,13.4,1505.3,326.5,-0.7,1.8,2470.425,13.33,0.032,146.3
2020-11-21T02:43:03,42.805,6.029,0.016,-0.019,0.016,99.0,103.0,100.0,13.4,1505.3,328.2,-0.7,1.8,2470.425,13.33,0.024,139.9
2020-11-21T02:46:03,42.805,6.029,0.05,-0.035,0.021,102.0,103.0,98.0,13.4,1505.3,323.0,-0.7,1.8,2470.423,13.33,0.061,125.0
2020-11-21T02:49:03,42.805,6.029,0.036,-0.003,0.054,100.0,105.0,98.0,13.4,1505.3,324.0,-0.7,1.8,2470.428,13.33,0.036,94.8
2020-11-21T02:52:03,42.805,6.029,0.007,-0.022,0.006,101.0,104.0,99.0,13.3,1505.3,327.4,-0.7,1.8,2470.374,13.33,0.023,162.4
2020-11-21T02:55:03,42.805,6.029,0.004,-0.013,0.001,99.0,103.0,98.0,13.4,1505.3,325.0,-0.7,1.8,2470.407,13.33,0.013,162.9
2020-11-21T02:58:03,42.805,6.029,0.016,-0.013,0.027,102.0,106.0,98.0,13.4,1505.3,328.6,-0.6,1.8,2470.405,13.33,0.02,129.1
2020-11-21T03:04:03,42.805,6.029,0.055,-0.021,0.027,100.0,103.0,99.0,13.4,1505.3,326.9,-0.7,1.8,2470.435,13.31,0.058,110.9
2020-11-21T03:07:03,42.805,6.029,0.036,-0.005,0.045,99.0,104.0,99.0,13.3,1505.3,328.4,-0.7,1.8,2470.435,13.32,0.036,97.9
2020-11-21T03:10:03,42.805,6.029,0.026,-0.028,0.039,99.0,104.0,99.0,13.4,1505.3,323.6,-0.7,1.8,2470.438,13.32,0.038,137.1
2020-11-21T03:13:03,42.805,6.029,0.001,0.006,0.056,101.0,103.0,98.0,13.4,1505.3,326.4,-0.7,1.8,2470.392,13.32,0.006,9.5
2020-11-21T03:16:03,42.805,6.029,0.024,-0.012,0.051,101.0,104.0,98.0,13.4,1505.3,323.2,-0.7,1.9,2470.409,13.33,0.026,116.6
2020-11-21T03:19:03,42.805,6.029,0.051,-0.031,0.041,100.0,104.0,99.0,13.4,1505.3,326.8,-0.7,1.8,2470.435,13.33,0.059,121.3
2020-11-21T03:22:03,42.805,6.029,0.007,-0.022,-0.003,100.0,105.0,99.0,13.4,1505.3,325.7,-0.7,1.8,2470.4,13.33,0.023,162.4
2020-11-21T03:25:03,42.805,6.029,0.029,-0.019,0.024,99.0,103.0,99.0,13.3,1505.3,326.9,-0.7,1.8,2470.399,13.33,0.034,123.2
2020-11-21T03:28:03,42.805,6.029,0.048,-0.017,0.06,98.0,105.0,100.0,13.3,1505.3,325.9,-0.7,1.9,2470.426,13.33,0.05,109.5
2020-11-21T03:31:03,42.805,6.029,0.02,-0.003,0.072,101.0,103.0,99.0,13.4,1505.3,326.6,-0.7,1.8,2470.405,13.33,0.02,98.5
2020-11-21T03:34:03,42.805,6.029,0.016,-0.016,0.002,99.0,106.0,99.0,13.3,1505.3,326.6,-0.7,1.8,2470.382,13.33,0.022,135.0
2020-11-21T03:37:03,42.805,6.029,0.02,0.006,0.037,100.0,104.0,99.0,13.3,1505.3,325.8,-0.7,1.9,2470.413,13.33,0.02,73.3
2020-11-21T03:40:03,42.805,6.029,0.003,-0.02,-0.007,100.0,105.0,99.0,13.4,1505.3,324.9,-0.7,1.8,2470.385,13.33,0.02,171.5
2020-11-21T03:43:03,42.805,6.029,-0.031,-0.009,-0.009,101.0,105.0,99.0,13.4,1505.3,327.5,-0.7,1.8,2470.377,13.33,0.032,253.8
2020-11-21T03:46:03,42.805,6.029,-0.034,-0.025,-0.075,100.0,106.0,100.0,13.3,1505.3,326.9,-0.7,1.8,2470.367,13.33,0.042,233.7
2020-11-21T03:49:03,42.805,6.029,-0.037,-0.017,-0.045,100.0,105.0,99.0,13.4,1505.4,325.5,-0.7,1.8,2470.418,13.34,0.04,245.3
2020-11-21T03:52:03,42.805,6.029,-0.04,-0.039,-0.035,102.0,103.0,99.0,13.4,1505.4,325.9,-0.7,1.8,2470.349,13.34,0.055,225.7
2020-11-21T03:55:03,42.805,6.029,-0.033,-0.015,-0.074,101.0,105.0,100.0,13.4,1505.3,326.2,-0.7,1.8,2470.379,13.33,0.036,245.6
2020-11-21T03:58:03,42.805,6.029,-0.043,-0.025,-0.05,101.0,105.0,98.0,13.4,1505.3,327.1,-0.7,1.8,2470.381,13.33,0.049,239.8
2020-11-21T04:04:03,42.805,6.029,-0.032,-0.005,-0.045,100.0,103.0,99.0,13.4,1505.3,324.2,-0.7,1.8,2470.447,13.31,0.032,261.1
2020-11-21T04:07:03,42.805,6.029,-0.087,-0.032,-0.053,99.0,104.0,98.0,13.3,1505.3,325.7,-0.8,1.8,2470.448,13.32,0.092,249.8
2020-11-21T04:10:03,42.805,6.029,-0.033,-0.02,-0.021,100.0,102.0,98.0,13.4,1505.3,324.5,-0.7,1.8,2470.394,13.33,0.038,238.8
2020-11-21T04:13:03,42.805,6.029,-0.006,-0.038,-0.024,99.0,103.0,99.0,13.4,1505.3,324.6,-0.7,1.8,2470.406,13.33,0.038,189.0
2020-11-21T04:16:03,42.805,6.029,0.007,-0.02,-0.017,100.0,103.0,100.0,13.4,1505.3,323.6,-0.7,1.9,2470.394,13.33,0.021,160.7
2020-11-21T04:19:03,42.805,6.029,-0.014,-0.012,-0.009,99.0,102.0,99.0,13.4,1505.3,323.5,-0.7,1.8,2470.418,13.33,0.018,229.4
2020-11-21T04:22:03,42.805,6.029,-0.003,-0.014,-0.009,99.0,104.0,98.0,13.4,1505.4,326.6,-0.7,1.8,2470.426,13.34,0.014,192.1
2020-11-21T04:25:03,42.805,6.029,0.042,-0.023,0.044,100.0,103.0,99.0,13.3,1505.4,327.3,-0.7,1.8,2470.402,13.34,0.047,118.7
2020-11-21T04:28:03,42.805,6.029,0.049,-0.007,0.066,99.0,103.0,98.0,13.4,1505.4,324.5,-0.7,1.8,2470.409,13.34,0.049,98.1
2020-11-21T04:31:03,42.805,6.029,0.058,-0.019,0.04,101.0,102.0,99.0,13.4,1505.4,324.9,-0.7,1.8,2470.367,13.34,0.061,108.1
2020-11-21T04:34:03,42.805,6.029,0.032,-0.005,0.017,101.0,101.0,98.0,13.4,1505.4,324.6,-0.7,1.8,2470.369,13.34,0.032,98.9
2020-11-21T04:37:03,42.805,6.029,0.042,0.0,0.039,101.0,102.0,100.0,13.4,1505.4,328.1,-0.7,1.8,2470.394,13.34,0.042,90.0
2020-11-21T04:40:03,42.805,6.029,0.044,0.014,0.044,100.0,104.0,99.0,13.4,1505.4,323.3,-0.7,1.8,2470.371,13.34,0.046,72.4
2020-11-21T04:43:03,42.805,6.029,0.011,0.01,0.026,98.0,105.0,99.0,13.3,1505.4,325.4,-0.7,1.8,2470.368,13.34,0.014,47.7
2020-11-21T04:46:03,42.805,6.029,0.0,0.018,0.028,100.0,104.0,99.0,13.3,1505.4,324.7,-0.7,1.8,2470.387,13.34,0.018,0.0
2020-11-21T04:49:03,42.805,6.029,0.022,-0.011,-0.009,99.0,107.0,99.0,13.4,1505.4,324.4,-0.7,1.8,2470.397,13.34,0.024,116.6
2020-11-21T04:52:03,42.805,6.029,-0.023,-0.011,-0.036,100.0,104.0,98.0,13.4,1505.4,326.9,-0.7,1.8,2470.408,13.34,0.025,244.4
2020-11-21T04:55:03,42.805,6.029,-0.023,-0.009,-0.001,100.0,106.0,98.0,13.3,1505.4,327.6,-0.7,1.8,2470.438,13.34,0.024,248.6
2020-11-21T04:58:03,42.805,6.029,-0.04,-0.01,-0.042,101.0,105.0,98.0,13.3,1505.4,327.6,-0.7,1.8,2470.406,13.34,0.041,256.0
2020-11-21T05:04:03,42.805,6.029,0.046,0.005,0.048,101.0,104.0,100.0,13.4,1505.3,325.1,-0.7,1.8,2470.425,13.32,0.046,83.8
2020-11-21T05:07:03,42.805,6.029,0.039,-0.001,0.059,101.0,105.0,98.0,13.4,1505.3,324.7,-0.8,1.8,2470.471,13.32,0.039,91.5
2020-11-21T05:10:03,42.805,6.029,0.031,-0.014,0.024,98.0,107.0,99.0,13.4,1505.3,326.5,-0.7,1.8,2470.425,13.33,0.034,114.3
2020-11-21T05:13:03,42.805,6.029,-0.035,-0.01,-0.028,99.0,106.0,98.0,13.4,1505.3,325.1,-0.7,1.8,2470.406,13.33,0.036,254.1
2020-11-21T05:16:03,42.805,6.029,0.005,0.009,-0.035,98.0,105.0,98.0,13.3,1505.3,325.4,-0.7,1.8,2470.401,13.33,0.01,29.1
2020-11-21T05:19:03,42.805,6.029,-0.026,-0.013,-0.027,100.0,105.0,100.0,13.3,1505.3,325.0,-0.7,1.8,2470.407,13.33,0.029,243.4
2020-11-21T05:22:03,42.805,6.029,-0.042,-0.016,-0.046,100.0,106.0,98.0,13.4,1505.3,325.4,-0.7,1.8,2470.452,13.33,0.044,249.1
2020-11-21T05:25:03,42.805,6.029,-0.04,-0.014,-0.041,101.0,105.0,98.0,13.3,1505.4,324.0,-0.7,1.9,2470.398,13.34,0.042,250.7
2020-11-21T05:28:03,42.805,6.029,-0.03,0.0,-0.031,100.0,106.0,99.0,13.4,1505.4,326.8,-0.7,1.8,2470.44,13.34,0.03,270.0
2020-11-21T05:31:03,42.805,6.029,-0.054,-0.021,-0.078,101.0,106.0,99.0,13.4,1505.4,327.8,-0.7,1.8,2470.421,13.34,0.057,248.8
2020-11-21T05:34:03,42.805,6.029,-0.02,-0.02,-0.055,99.0,104.0,99.0,13.3,1505.4,323.7,-0.7,1.8,2470.384,13.34,0.028,225.0
2020-11-21T05:37:03,42.805,6.029,0.003,-0.008,-0.025,103.0,105.0,100.0,13.3,1505.4,324.2,-0.7,1.8,2470.406,13.34,0.008,159.4
2020-11-21T05:40:03,42.805,6.029,0.05,-0.008,0.051,101.0,105.0,99.0,13.3,1505.4,327.0,-0.7,1.8,2470.414,13.34,0.05,99.1
2020-11-21T05:43:03,42.805,6.029,0.065,-0.011,0.084,100.0,105.0,99.0,13.4,1505.4,325.6,-0.7,1.8,2470.392,13.34,0.065,99.6
2020-11-21T05:46:03,42.805,6.029,0.031,-0.008,0.022,100.0,106.0,98.0,13.4,1505.3,325.7,-0.7,1.8,2470.384,13.33,0.032,104.5
2020-11-21T05:49:03,42.805,6.029,0.018,-0.01,0.013,100.0,104.0,99.0,13.3,1505.3,323.9,-0.7,1.8,2470.384,13.33,0.02,119.1
2020-11-21T05:52:03,42.805,6.029,0.018,-0.018,-0.006,102.0,105.0,98.0,13.4,1505.3,326.5,-0.7,1.8,2470.417,13.33,0.025,135.0
2020-11-21T05:55:03,42.805,6.029,0.046,0.002,0.039,101.0,105.0,98.0,13.3,1505.3,325.8,-0.8,1.8,2470.418,13.33,0.046,87.5
2020-11-21T05:58:03,42.805,6.029,0.064,-0.009,0.047,101.0,105.0,98.0,13.3,1505.3,325.5,-0.7,1.8,2470.426,13.33,0.064,98.0
2020-11-21T06:04:03,42.805,6.029,0.037,-0.018,0.013,101.0,106.0,98.0,13.4,1505.3,325.7,-0.7,1.8,2470.418,13.32,0.041,115.9
2020-11-21T06:07:03,42.805,6.029,0.039,-0.007,0.071,100.0,107.0,99.0,13.3,1505.3,328.4,-0.7,1.8,2470.412,13.32,0.039,100.2
2020-11-21T06:10:03,42.805,6.029,0.05,-0.007,0.045,100.0,106.0,98.0,13.4,1505.3,324.8,-0.7,1.9,2470.431,13.33,0.05,98.0
2020-11-21T06:13:03,42.805,6.029,0.014,-0.008,0.016,100.0,107.0,98.0,13.3,1505.3,325.1,-0.7,1.8,2470.434,13.33,0.016,119.7
2020-11-21T06:16:03,42.805,6.029,-0.032,0.017,-0.008,100.0,106.0,98.0,13.4,1505.3,324.3,-0.7,1.8,2470.43,13.33,0.036,298.0
2020-11-21T06:22:03,42.805,6.029,0.044,0.012,0.061,100.0,107.0,99.0,13.4,1505.3,325.6,-0.7,1.8,2470.482,13.31,0.045,74.7
2020-11-21T06:25:03,42.805,6.029,0.022,-0.001,0.038,102.0,104.0,99.0,13.4,1505.3,323.4,-0.7,1.8,2470.455,13.32,0.022,92.6
2020-11-21T06:28:03,42.805,6.029,-0.039,-0.01,-0.06,102.0,108.0,99.0,13.4,1505.3,322.6,-0.7,1.8,2470.457,13.32,0.04,255.6
2020-11-21T06:31:03,42.805,6.029,0.035,-0.015,-0.015,102.0,105.0,99.0,13.4,1505.3,326.0,-0.7,1.8,2470.419,13.32,0.038,113.2
2020-11-21T06:34:03,42.805,6.029,-0.009,-0.026,-0.033,102.0,103.0,100.0,13.4,1505.3,324.7,-0.7,1.8,2470.413,13.33,0.027,199.1
2020-11-21T06:37:03,42.805,6.029,-0.008,-0.002,-0.026,102.0,104.0,99.0,13.4,1505.3,324.4,-0.7,1.8,2470.46,13.33,0.008,256.0
2020-11-21T06:40:03,42.805,6.029,0.009,-0.009,0.0,102.0,105.0,98.0,13.4,1505.3,326.0,-0.7,1.8,2470.432,13.33,0.012,135.0
2020-11-21T06:43:03,42.805,6.029,0.097,0.0,0.092,102.0,104.0,100.0,13.3,1505.3,325.8,-0.7,1.8,2470.439,13.33,0.097,90.0
2020-11-21T06:46:03,42.805,6.029,-0.002,0.01,0.037,102.0,104.0,99.0,13.3,1505.3,325.4,-0.8,1.8,2470.406,13.33,0.01,348.7
2020-11-21T06:49:03,42.805,6.029,0.052,0.006,0.086,100.0,104.0,99.0,13.4,1505.3,323.1,-0.7,1.8,2470.414,13.33,0.052,83.4
2020-11-21T06:52:03,42.805,6.029,0.034,-0.011,0.015,101.0,104.0,99.0,13.3,1505.3,325.2,-0.7,1.8,2470.421,13.33,0.035,107.9
2020-11-21T06:55:03,42.805,6.029,0.061,0.004,0.036,100.0,105.0,99.0,13.3,1505.3,324.6,-0.7,1.9,2470.441,13.33,0.061,86.3
2020-11-21T06:58:03,42.805,6.029,0.019,0.009,0.024,101.0,104.0,98.0,13.4,1505.3,325.3,-0.7,1.8,2470.423,13.33,0.021,64.7
2020-11-21T07:04:03,42.805,6.029,0.028,0.006,0.049,101.0,105.0,99.0,13.4,1505.3,325.5,-0.7,1.8,2470.504,13.31,0.028,77.9
2020-11-21T07:07:03,42.805,6.029,0.026,-0.011,0.019,101.0,105.0,99.0,13.4,1505.3,324.1,-0.7,1.8,2470.466,13.31,0.028,112.9
2020-11-21T07:10:03,42.805,6.029,0.027,0.0,0.023,100.0,104.0,99.0,13.4,1505.3,324.3,-0.7,1.8,2470.486,13.32,0.026,90.0
2020-11-21T07:13:03,42.805,6.029,0.075,0.005,0.054,99.0,103.0,100.0,13.4,1505.3,327.5,-0.7,1.8,2470.481,13.32,0.075,86.2
2020-11-21T07:16:03,42.805,6.029,0.05,-0.02,0.011,99.0,105.0,99.0,13.4,1505.3,326.4,-0.7,1.8,2470.473,13.32,0.053,111.8
2020-11-21T07:19:03,42.805,6.029,0.05,-0.012,0.021,101.0,103.0,99.0,13.4,1505.3,328.0,-0.7,1.8,2470.489,13.32,0.051,103.5
2020-11-21T07:22:03,42.805,6.029,0.034,-0.007,0.018,100.0,104.0,99.0,13.4,1505.3,325.2,-0.7,1.9,2470.464,13.32,0.034,101.6
2020-11-21T07:25:03,42.805,6.029,0.034,0.012,0.026,101.0,103.0,99.0,13.4,1505.3,328.3,-0.7,1.8,2470.43,13.32,0.036,70.6
2020-11-21T07:28:03,42.805,6.029,0.024,-0.004,0.02,101.0,103.0,99.0,13.4,1505.3,326.1,-0.7,1.9,2470.435,13.33,0.024,99.5
2020-11-21T07:31:03,42.805,6.029,0.049,-0.018,0.013,101.0,104.0,99.0,13.4,1505.3,327.5,-0.7,1.8,2470.501,13.33,0.052,110.2
2020-11-21T07:34:03,42.805,6.029,0.014,0.0,0.021,99.0,105.0,100.0,13.4,1505.3,326.0,-0.7,1.8,2470.452,13.33,0.014,90.0
2020-11-21T07:37:03,42.805,6.029,0.026,0.0,0.016,100.0,104.0,100.0,13.4,1505.3,325.8,-0.7,1.9,2470.46,13.33,0.026,90.0
2020-11-21T07:40:03,42.805,6.029,0.035,-0.004,0.047,100.0,104.0,98.0,13.4,1505.3,327.1,-0.7,1.8,2470.474,13.33,0.035,96.5
2020-11-21T07:43:03,42.805,6.029,0.011,-0.025,-0.049,101.0,103.0,99.0,13.4,1505.3,326.8,-0.7,1.8,2470.484,13.33,0.027,156.3
2020-11-21T07:46:03,42.805,6.029,0.041,-0.018,0.031,100.0,106.0,99.0,13.4,1505.3,325.4,-0.7,1.8,2470.473,13.33,0.044,113.7
2020-11-21T07:49:03,42.805,6.029,0.035,0.016,0.027,100.0,105.0,100.0,13.4,1505.3,327.8,-0.7,1.8,2470.458,13.33,0.038,65.4
2020-11-21T07:52:03,42.805,6.029,0.047,0.016,0.019,102.0,105.0,100.0,13.3,1505.3,326.0,-0.7,1.8,2470.421,13.33,0.049,71.2
2020-11-21T07:55:03,42.805,6.029,0.053,-0.02,0.019,100.0,104.0,100.0,13.4,1505.3,328.2,-0.7,1.8,2470.464,13.32,0.056,110.7
2020-11-21T07:58:03,42.805,6.029,0.024,-0.002,0.0,101.0,102.0,98.0,13.4,1505.3,322.8,-0.8,1.8,2470.471,13.33,0.024,94.8
2020-11-21T08:04:03,42.805,6.029,0.062,-0.006,0.051,100.0,106.0,98.0,13.4,1505.3,327.5,-0.8,1.9,2470.544,13.31,0.062,95.5
2020-11-21T08:07:03,42.805,6.029,0.021,0.0,-0.005,101.0,104.0,99.0,13.4,1505.3,324.2,-0.7,1.8,2470.47,13.31,0.021,90.0
2020-11-21T08:10:03,42.805,6.029,0.027,0.001,0.041,99.0,106.0,98.0,13.4,1505.3,323.2,-0.7,1.8,2470.527,13.32,0.027,87.9
2020-11-21T08:13:03,42.805,6.029,0.021,0.005,0.009,101.0,107.0,98.0,13.4,1505.3,324.4,-0.7,1.8,2470.517,13.32,0.021,76.6
2020-11-21T08:16:03,42.805,6.029,-0.004,0.01,-0.016,100.0,108.0,99.0,13.4,1505.3,324.9,-0.7,1.8,2470.504,13.32,0.01,338.2
2020-11-21T08:19:03,42.805,6.029,0.024,-0.006,-0.005,99.0,108.0,99.0,13.4,1505.3,326.0,-0.7,1.8,2470.502,13.32,0.024,104.0
2020-11-21T08:22:03,42.805,6.029,0.02,-0.006,-0.01,100.0,106.0,99.0,13.4,1505.3,324.5,-0.7,1.8,2470.482,13.32,0.02,106.7
2020-11-21T08:25:03,42.805,6.029,0.055,-0.012,0.016,100.0,107.0,98.0,13.3,1505.3,326.5,-0.7,1.8,2470.522,13.32,0.056,102.3
2020-11-21T08:28:03,42.805,6.029,-0.002,-0.002,-0.017,100.0,108.0,99.0,13.3,1505.3,327.7,-0.7,1.8,2470.49,13.32,0.002,225.0
2020-11-21T08:31:03,42.805,6.029,0.011,-0.014,-0.007,100.0,108.0,99.0,13.3,1505.3,327.0,-0.7,1.8,2470.537,13.32,0.017,141.8
2020-11-21T08:34:03,42.805,6.029,0.027,-0.008,0.012,99.0,109.0,99.0,13.4,1505.3,325.4,-0.7,1.8,2470.525,13.32,0.028,106.5
2020-11-21T08:37:03,42.805,6.029,0.037,-0.02,-0.02,100.0,106.0,99.0,13.4,1505.3,326.9,-0.7,1.9,2470.526,13.32,0.042,118.4
2020-11-21T08:40:03,42.805,6.029,0.069,-0.028,0.033,101.0,107.0,98.0,13.4,1505.3,326.6,-0.7,1.8,2470.534,13.32,0.074,112.1
2020-11-21T08:43:03,42.805,6.029,0.025,-0.005,0.018,100.0,106.0,99.0,13.4,1505.3,327.7,-0.7,1.9,2470.537,13.32,0.025,101.3
2020-11-21T08:46:03,42.805,6.029,0.065,0.009,0.039,99.0,107.0,99.0,13.4,1505.3,326.9,-0.7,1.8,2470.554,13.32,0.065,82.1
2020-11-21T08:49:03,42.805,6.029,0.048,-0.013,0.022,100.0,106.0,100.0,13.3,1505.3,325.6,-0.7,1.8,2470.566,13.32,0.049,105.2
2020-11-21T08:52:03,42.805,6.029,0.046,0.0,0.028,100.0,106.0,99.0,13.4,1505.3,327.3,-0.7,1.8,2470.504,13.32,0.046,90.0
2020-11-21T08:55:03,42.805,6.029,0.045,0.005,0.04,101.0,106.0,97.0,13.4,1505.3,326.8,-0.7,1.8,2470.56,13.32,0.045,83.7
2020-11-21T08:58:03,42.805,6.029,0.052,0.0,0.038,102.0,106.0,98.0,13.4,1505.3,326.5,-0.7,1.8,2470.542,13.32,0.052,90.0
2020-11-21T09:04:03,42.805,6.029,0.02,-0.006,-0.012,100.0,107.0,100.0,13.4,1505.3,327.2,-0.7,1.8,2470.562,13.31,0.02,106.7
2020-11-21T09:07:03,42.805,6.029,0.018,-0.015,-0.029,99.0,107.0,100.0,13.4,1505.3,325.2,-0.7,1.8,2470.573,13.31,0.023,129.8
2020-11-21T09:10:03,42.805,6.029,0.048,0.011,0.021,101.0,106.0,98.0,13.4,1505.3,326.3,-0.7,1.8,2470.613,13.32,0.049,77.1
2020-11-21T09:13:03,42.805,6.029,0.044,-0.013,-0.026,100.0,107.0,100.0,13.4,1505.3,325.8,-0.7,1.8,2470.601,13.32,0.045,106.5
2020-11-21T09:16:03,42.805,6.029,0.041,-0.016,-0.016,100.0,105.0,99.0,13.4,1505.3,327.8,-0.7,1.9,2470.545,13.32,0.044,111.3
2020-11-21T09:19:03,42.805,6.029,0.037,-0.002,0.025,101.0,104.0,99.0,13.4,1505.3,323.3,-0.7,1.8,2470.566,13.32,0.037,93.1
2020-11-21T09:22:03,42.805,6.029,0.049,-0.019,0.024,101.0,105.0,99.0,13.3,1505.3,323.5,-0.7,1.8,2470.574,13.32,0.052,111.2
2020-11-21T09:25:03,42.805,6.029,0.047,-0.01,0.014,101.0,108.0,98.0,13.4,1505.3,324.7,-0.7,1.8,2470.596,13.32,0.048,102.0
2020-11-21T09:28:03,42.805,6.029,0.02,-0.002,0.015,101.0,105.0,99.0,13.4,1505.3,324.8,-0.7,1.8,2470.566,13.32,0.02,95.7
2020-11-21T09:31:03,42.805,6.029,0.054,-0.005,0.0,99.0,107.0,98.0,13.4,1505.3,327.6,-0.7,1.8,2470.597,13.32,0.054,95.3
2020-11-21T09:34:03,42.805,6.029,0.031,-0.017,-0.02,101.0,107.0,98.0,13.4,1505.3,323.3,-0.7,1.8,2470.617,13.32,0.035,118.7
2020-11-21T09:37:03,42.805,6.029,0.053,-0.015,0.01,101.0,104.0,99.0,13.3,1505.3,326.1,-0.7,1.8,2470.546,13.32,0.055,105.8
2020-11-21T09:40:03,42.805,6.029,0.028,0.015,-0.011,100.0,104.0,99.0,13.4,1505.3,324.3,-0.7,1.8,2470.571,13.32,0.031,61.8
2020-11-21T09:43:03,42.805,6.029,0.032,-0.003,0.02,101.0,104.0,99.0,13.4,1505.3,326.4,-0.7,1.8,2470.581,13.32,0.032,95.4
2020-11-21T09:46:03,42.805,6.029,0.034,0.01,0.017,101.0,104.0,99.0,13.4,1505.3,326.2,-0.7,1.9,2470.571,13.32,0.035,73.6
2020-11-21T09:49:03,42.805,6.029,0.046,-0.006,0.005,101.0,105.0,99.0,13.4,1505.3,326.0,-0.7,1.8,2470.608,13.32,0.046,97.4
2020-11-21T09:52:03,42.805,6.029,0.025,0.0,0.022,101.0,106.0,99.0,13.4,1505.3,325.1,-0.7,1.8,2470.618,13.32,0.025,90.0
2020-11-21T09:55:03,42.805,6.029,0.044,0.004,-0.02,100.0,104.0,99.0,13.4,1505.3,325.9,-0.7,1.8,2470.59,13.32,0.044,84.8
2020-11-21T09:58:03,42.805,6.029,0.031,-0.008,0.004,100.0,104.0,99.0,13.4,1505.3,326.1,-0.6,1.8,2470.57,13.32,0.032,104.5
2020-11-21T10:04:03,42.805,6.029,0.027,-0.025,-0.003,100.0,105.0,99.0,13.4,1505.2,323.2,-0.7,1.8,2470.607,13.3,0.036,132.8
2020-11-21T10:07:03,42.805,6.029,0.041,-0.023,0.03,101.0,105.0,99.0,13.4,1505.3,327.2,-0.7,1.9,2470.617,13.31,0.047,119.3
2020-11-21T10:10:03,42.805,6.029,0.012,-0.02,-0.039,99.0,106.0,100.0,13.4,1505.3,326.0,-0.7,1.8,2470.618,13.31,0.023,149.0